Weather in Zherelevo

Russia / Kaluga Oblast     54°11′32″N   33°43′17″E
temp.,
°C
wind,
m/s
gust,
m/s
humid.,
%
clouds,
%
prec.,
mm/h
press.,
hPa
HPBL,
m
7 july, thu
thu700:00+19sse229498 0.0 101135
03:00+18s379280 0.0 1011145
06:00+17s279821 0.7 1010200
09:00+20wsw358261 0.7 1011620
12:00+22wsw556530 0.0 10131055
15:00+22w456043 0.0 10141064
18:00+20nw456614 0.0 1015901
21:00+16nw2386100 0.0 101650
8 july, fri
fri800:00+14nw2590100 0.0 101795
03:00+13nnw2491100 0.0 101765
06:00+14nnw248811 0.0 1018121
09:00+19n22645 0.0 1018702
12:00+22nw225497 0.1 10181604
15:00+22wnw2255100 0.3 10171437
18:00+20nnw3565100 0.1 1016485
21:00+17nw2277100 0.1 101719
9 july, sat
sat900:00+14nnw22817 0.0 101717
03:00+13nnw22889 0.0 101613
06:00+14n128399 0.0 101656
09:00+20nnw116045 0.0 1015470
12:00+24ssw234871 0.0 10141445
15:00+25sw3346100 0.0 10121687
18:00+23w235554 0.2 10111117
21:00+17n228887 0.8 101135
10 july, sun
sun1000:00+15nnw1188100 0.3 101112
03:00+15ene0191100 1.0 101011
06:00+15ne1192100 0.1 101029
09:00+16nne229674 2.4 1009142
12:00+17wnw239498 3.3 1010109
15:00+20n3379100 3.8 1009409
18:00+21nnw2279100 0.9 1008367
21:00+17n2395100 4.6 100853
11 july, mon
mon1100:00+16nw46100100 13.5 1008184
03:00+15ne379971 14.6 1007206
06:00+16ne1298100 0.4 100697
09:00+16ene2799100 3.0 1005332
12:00+16ene61397100 4.8 1004819
15:00+19ese6119497 6.3 10031039
18:00+18s2695100 1.7 1003316
21:00+15sw2599100 8.3 1003320